Regional Weather Roundup
Issued by NWS

Home | Current Version | Previous Version | Text Only | Print | Product List | Glossary Off
Versions: 1 2 3 4 5 6 7 8 9 10 11 12 13 14 15 16 17 18 19 20 21 22 23 24 25 26 27 28 29 30 31 32 33 34 35 36 37 38 39 40 41 42 43 44 45 46 47 48 49 50

000
ASUS43 KLOT 272309
RWRIL

ILLINOIS REGIONAL WEATHER ROUNDUP
NATIONAL WEATHER SERVICE CHICAGO/ROMEOVILLE IL
600 PM CDT TUE JUN 27 2017

NOTE: "FAIR" INDICATES FEW OR NO CLOUDS BELOW 12,000 FEET WITH NO
SIGNIFICANT WEATHER AND/OR OBSTRUCTIONS TO VISIBILITY.

* THESE STATIONS ARE NOT UNDER NWS QUALITY CONTROL. THEY ALSO MAY NOT
  REPORT WEATHER SUCH AS PRECIPITATION OR FOG.

ILZ001-002-007-009-015-016-024-280000-
NORTHWEST ILLINOIS

CITY           SKY/WX    TMP DP  RH WIND       PRES   REMARKS
MOLINE         SUNNY     75  45  34 S8        30.01F
STERLING*      SUNNY     74  49  41 VRB6      30.03F
SAVANNA*       SUNNY     75  47  37 S8        30.02F
$$

ILZ003-004-008-010-011-017-018-280000-
NORTH CENTRAL ILLINOIS

CITY           SKY/WX    TMP DP  RH WIND       PRES   REMARKS
ROCKFORD       PTSUNNY   75  44  33 SW10      30.04F
FREEPORT*      SUNNY     72  47  40 SW5       30.04F
ROCHELLE*      SUNNY     73  45  36 SW6       30.04F
DE KALB*       SUNNY     74  46  36 CALM      30.04F
PERU*          SUNNY     74  44  34 SW6       30.04F
$$

ILZ005-006-012>014-019>023-280000-
NORTHEAST ILLINOIS

CITY           SKY/WX    TMP DP  RH WIND       PRES   REMARKS
CHICAGO-OHARE  PTSUNNY   76  43  30 W9        30.03F
CHICAGO-MIDWAY PTSUNNY   75  45  34 SW10      30.04F
AURORA         SUNNY     76  45  33 W5        30.04F
LANSING*       MOSUNNY   76  44  32 W3        30.04F
JOLIET*        SUNNY     76  47  36 SW8       30.04F
WAUKEGAN       MOSUNNY   69  51  52 SE12      30.03F
DUPAGE AIRPORT SUNNY     74  46  36 SW5       30.03F
WHEELING       PTSUNNY   76  45  33 VRB3      30.04F
MORRIS*        SUNNY     74  44  33 W6        30.03F
ROMEOVILLE*    MOSUNNY   76  42  29 SW10      30.04F
$$

LMZ740>746-280000-
SOUTHERN LAKE MICHIGAN

STATION/POSITION SKY/WX   TEMP    WIND        PRES    VSBY  WAVE
                          AIR SEA DIR/SP/G                  HT/PER
                          (F)     (DEG/KT/KT) (MB)    (MI)  (FT/S)
SOUTHERN BUOY              63 62  170/ 10/ 10 1017.9          1
WILMETTE HARBOR            65 64  140/ 10/ 12   N/A           1/ 2
HARRISON CRIB              68     120/ 12/ 13   N/A
BURNHAM HARBOR             68                   N/A
CALUMET HARBOR             68      80/ 10/ 13 1017.2F
BURNS HARBOR               70      50/  9/ 12 1018.3F
MICHIGAN CITY              68      40/  7/  7   N/A
MICHIGAN CITY 6N           68 67   90/  6/  6   N/A           1
ST. JOSEPH                 68 69  210/  4/  4 1017.9          1/ 4
$$

ILZ025>027-034>036-040-047-049-050-058-095>099-280000-
WEST-CENTRAL ILLINOIS

CITY           SKY/WX    TMP DP  RH WIND       PRES   REMARKS
QUINCY         SUNNY     78  52  40 S8        30.02F
GALESBURG*     SUNNY     74  49  40 S8        30.03F
MACOMB*        SUNNY     75  47  36 SW7       30.05F
JACKSONVILLE*  SUNNY     77  51  39 SW6       30.04F
PITTSFIELD*    SUNNY     77  51  39 S8        30.05F
$$

ILZ028>032-037-038-041>044-048-051>054-059>061-280000-
CENTRAL ILLINOIS

CITY           SKY/WX    TMP DP  RH WIND       PRES   REMARKS
PONTIAC        SUNNY     75  44  32 SW6       30.06F
BLOOMINGTON    SUNNY     73  46  38 VRB3      30.07F
DECATUR        SUNNY     75  45  34 VRB3      30.06F
PEORIA         SUNNY     75  46  35 S6        30.04F
LACON*         SUNNY     73  48  41 S5        30.04F
LINCOLN*       SUNNY     77  49  37 S3        30.05F
SPRINGFIELD    SUNNY     78  50  37 S7        30.05F
TAYLORVILLE    SUNNY     75  48  37 SW7       30.06F
$$

ILZ033-039-045-046-055>057-062-063-280000-
EAST-CENTRAL ILLINOIS

CITY           SKY/WX    TMP DP  RH WIND       PRES   REMARKS
CHAMPAIGN      SUNNY     76  41  28 SW5       30.07F
RANTOUL*       SUNNY     76  46  33 CALM      30.06F
MATTOON        SUNNY     74  52  46 SW5       30.07F
PARIS*         SUNNY     73  48  42 CALM      30.08F
$$

ILZ079-100>102-280000-
SOUTHWEST ILLINOIS

CITY           SKY/WX    TMP DP  RH WIND       PRES   REMARKS
ALTON          MOSUNNY   77  55  47 SE8       30.05F
BELLEVILLE     SUNNY     80  50  35 CALM      30.05F
CAHOKIA*       SUNNY     82  46  28 CALM      30.04F HX  80
SPARTA*        MOSUNNY   78  50  37 SW5       30.06F
$$

ILZ064>066-069>071-074>076-080>082-084>086-088>090-092>094-280000-
SOUTH-CENTRAL ILLINOIS

CITY           SKY/WX    TMP DP  RH WIND       PRES   REMARKS
CARBONDALE     SUNNY     77  52  41 SE3       30.06F
CAIRO*         SUNNY     80  56  42 NE5       30.05F HX  80
EFFINGHAM*     SUNNY     77  49  36 CALM      30.09S
MARION         MOSUNNY   81  52  36 SW5       30.07F HX  80
MT. VERNON     SUNNY     79  52  38 E5        30.06F
CENTRALIA*     SUNNY     80  54  41 SE7       30.05F HX  80
SALEM*         SUNNY     79  50  36 S3        30.06F
METROPOLIS*    SUNNY     80  55  41 CALM      30.06F HX  80
$$

ILZ067-068-072-073-078-083-087-091-280000-
SOUTHEAST ILLINOIS

CITY           SKY/WX    TMP DP  RH WIND       PRES   REMARKS
LAWRENCEVILLE  SUNNY     76  48  37 CALM      30.08S
FLORA*         SUNNY     78  51  38 S3        30.07F
FAIRFIELD*     SUNNY     77  52  41 SE5       30.06F
HARRISBURG*    SUNNY     78  53  41 CALM      30.07F
ROBINSON*      SUNNY     74  48  38 CALM      30.09S
CARMI*         SUNNY     78  51  39 CALM      30.06F
$$

ABBREVIATIONS USED IN REMARKS
   TC - TEMPERATURE IN CELSIUS
  WCI - WIND CHILL INDEX
   HX - HEAT INDEX
  VSB - VISIBILITY
$$





USA.gov is the U.S. government's official web portal to all federal, state and local government web resources and services.